Weather in Shcherbinovka

Russia / Kemerovo Oblast     56°10′37″N   85°58′37″E
temp.,
°C
wind,
m/s
gust,
m/s
humid.,
%
clouds,
%
prec.,
mm/h
press.,
hPa
HPBL,
m
5 march, fri
fri501:00−4ssw71492100 1.3 1015785
04:00−6ssw61584100 0.1 1014573
07:00−8ssw61582100 0.1 1013553
10:00−5ssw7157799 0.0 1011704
13:00−3ssw7138999 0.2 10101017
16:00−3sw81492100 0.8 10081155
19:00−4sw81588100 1.1 10121083
22:00−6sw71687100 0.1 1014933
6 march, sat
sat601:00−5sw71591100 0.6 10141217
04:00−5sw71490100 0.6 10131079
07:00−5sw71492100 1.1 1014956
10:00−5sw81592100 0.9 1013977
13:00−5sw81687100 1.8 10111101
16:00−5sw81591100 0.4 10101222
19:00−5sw71592100 1.4 10091096
22:00−5sw71589100 0.7 10081031
7 march, sun
sun701:00−4sw71490100 0.9 1008994
04:00−3sw61392100 0.4 1008864
07:00−6w61389100 2.3 1010896
10:00−8wsw6137933 0.0 1012887
13:00−7wsw6117917 0.0 10161005
16:00−7wsw6108366 0.1 10181282
19:00−9wsw4118883 0.2 1020591
22:00−12sw499245 0.0 1022271
8 march, mon
mon801:00−14ssw369262 0.0 1023105
04:00−13s3786100 0.0 1021159
07:00−10s5128899 0.0 1018327
10:00−5s61488100 0.0 1013639
13:00−2s71486100 0.0 1009768
16:00+1ssw71577100 0.0 10051035
19:00−1ssw71678100 0.0 1003998
22:00−2sw81690100 0.8 10051293
9 march, tue
tue901:00−8w71485100 1.0 1010791
04:00−12wsw51391100 0.1 1015597
07:00−12sw61290100 0.1 1019608
10:00−12sw61289100 0.0 1021642
13:00−9sw6108595 0.1 1022731
16:00−7sw5108345 0.0 1022907
19:00−9ssw4118869 0.0 1022435
22:00−10ssw4109248 0.0 1021315